Change the Weather History Date:

Friday, April 18, 2014

  Actual Average (KMCE) Record (KMCE)
Temperature  
Mean Temperature 68 °F 60 °F  
Max Temperature 84 °F 74 °F 87 °F (2008)
Min Temperature 53 °F 45 °F 36 °F (2002)
Degree Days  
Heating Degree Days 0    
Month to date heating degree days  
Since 1 July heating degree days  
Cooling Degree Days 4    
Month to date cooling degree days  
Year to date cooling degree days  
Growing Degree Days 18 (Base 50)    
Moisture  
Dew Point 48 °F    
Average Humidity 57    
Maximum Humidity 82    
Minimum Humidity 27    
Precipitation  
Precipitation 0.00 in 0.03 in 0.06 in (2001)
Month to date precipitation 0.59  
Year to date precipitation 7.61  
Since 1 July precipitation 11.43  
Snow  
Snow 0.00 in - - ()
Month to date snowfall  
Since 1 July snowfall  
Snow Depth -    
Sea Level Pressure  
Sea Level Pressure 29.84 in    
Wind  
Wind Speed 10 mph (North)    
Max Wind Speed 21 mph    
Max Gust Speed 18 mph    
Visibility 10 miles    
Events      
T = Trace of Precipitation, MM = Missing Value Source: NWS Daily Summary

Daily Weather History Graph

Daily Weather History Graph

Search for Another Location

Airport or City:

Trip Planner

Search our weather history database for the weather conditions in past years. The results will help you decide how hot, cold, wet, or windy it might be!

Date:

Astronomy

Apr. 18, 2014 Rise Set
Actual Time 6:23 AM PDT 7:40 PM PDT
Civil Twilight 5:56 AM PDT 8:07 PM PDT
Nautical Twilight 5:23 AM PDT 8:40 PM PDT
Astronomical Twilight 4:50 AM PDT 9:14 PM PDT
Moon 11:27 PM PDT 8:52 AM PDT
Length of Visible Light 14h 11m
Length of Day
13h 16m
Waning Gibbous, 86% of the Moon is Illuminated
Apr 18
Waning Gibbous
Apr 22
Last Quarter
Apr 28
New
May 6
First Quarter
May 14
Full

Hourly Weather History & Observations

Time (PDT) Temp. Dew Point Humidity Pressure Visibility Wind Dir Wind Speed Gust Speed Precip Events Conditions
12:15 AM 62.6 °F 46.4 °F 55% 29.81 in 10.0 mi North 10.4 mph - N/A   Clear
12:35 AM 62.6 °F 46.4 °F 55% 29.81 in 10.0 mi North 11.5 mph - N/A   Clear
12:55 AM 62.6 °F 48.2 °F 59% 29.81 in 10.0 mi North - - N/A   Clear
1:15 AM 62.6 °F 48.2 °F 59% 29.81 in 10.0 mi NNE 11.5 mph - N/A   Clear
1:35 AM 62.6 °F 46.4 °F 55% 29.81 in 10.0 mi NNE 11.5 mph - N/A   Clear
1:55 AM 60.8 °F 46.4 °F 59% 29.81 in 10.0 mi North 10.4 mph - N/A   Clear
2:15 AM 60.8 °F 46.4 °F 59% 29.81 in 10.0 mi North - - N/A   Clear
2:35 AM 59.0 °F 46.4 °F 63% 29.81 in 10.0 mi North - - N/A   Clear
2:55 AM 59.0 °F 46.4 °F 63% 29.81 in 10.0 mi North - - N/A   Clear
3:15 AM 57.2 °F 46.4 °F 67% 29.81 in 10.0 mi North - - N/A   Clear
3:35 AM 57.2 °F 46.4 °F 67% 29.81 in 10.0 mi North - - N/A   Clear
3:55 AM 57.2 °F 46.4 °F 67% 29.81 in 10.0 mi North 11.5 mph - N/A   Clear
4:15 AM 57.2 °F 46.4 °F 67% 29.81 in 10.0 mi North 9.2 mph - N/A   Clear
4:35 AM 55.4 °F 46.4 °F 72% 29.81 in 10.0 mi North 9.2 mph - N/A   Clear
4:55 AM 55.4 °F 46.4 °F 72% 29.82 in 10.0 mi North 8.1 mph - N/A   Clear
5:15 AM 55.4 °F 46.4 °F 72% 29.82 in 10.0 mi North 10.4 mph - N/A   Clear
5:35 AM 55.4 °F 46.4 °F 72% 29.82 in 10.0 mi North 6.9 mph - N/A   Clear
5:55 AM 53.6 °F 48.2 °F 82% 29.82 in 10.0 mi North 8.1 mph - N/A   Clear
6:50 AM 53.6 °F 48.2 °F 82% 29.84 in 10.0 mi NNW 6.9 mph - N/A   Partly Cloudy
7:45 AM 59.0 °F 46.4 °F 63% 29.86 in 10.0 mi NNW 11.5 mph - N/A   Partly Cloudy
8:50 AM 64.4 °F 46.4 °F 52% 29.87 in 10.0 mi NNW 20.7 mph - N/A   Clear
9:45 AM 68.0 °F 46.4 °F 46% 29.88 in 10.0 mi NNW 20.7 mph - N/A   Clear
10:45 AM 69.8 °F 48.2 °F 46% 29.89 in 10.0 mi NNW 13.8 mph - N/A   Clear
11:45 AM 73.4 °F 48.2 °F 41% 29.88 in 10.0 mi NNW 10.4 mph - N/A   Clear
12:45 PM 77.0 °F 48.2 °F 36% 29.86 in 10.0 mi North 8.1 mph 18.4 mph N/A   Clear
1:45 PM 78.8 °F 48.2 °F 34% 29.84 in 10.0 mi NNW 11.5 mph - N/A   Clear
2:45 PM 80.6 °F 48.2 °F 32% 29.83 in 10.0 mi NNW 11.5 mph - N/A   Clear
3:45 PM 84.2 °F 46.4 °F 27% 29.81 in 10.0 mi North 9.2 mph - N/A   Clear
4:45 PM 84.2 °F 46.4 °F 27% 29.81 in 10.0 mi North 11.5 mph - N/A   Clear
5:45 PM 80.6 °F 48.2 °F 32% 29.82 in 10.0 mi NNW 9.2 mph - N/A   Clear
6:45 PM 77.0 °F 46.4 °F 34% 29.83 in 10.0 mi NNW 6.9 mph - N/A   Clear
8:15 PM 69.8 °F 50.0 °F 49% 29.85 in 10.0 mi North 6.9 mph - N/A   Clear
8:35 PM 68.0 °F 51.8 °F 56% 29.86 in 10.0 mi North - - N/A   Clear
8:45 PM 66.2 °F 51.8 °F 60% 29.86 in 10.0 mi North 11.5 mph - N/A   Clear
8:55 PM 66.2 °F 51.8 °F 60% 29.86 in 10.0 mi North 9.2 mph - N/A   Clear
9:15 PM 66.2 °F 50.0 °F 56% 29.87 in 10.0 mi North 9.2 mph - N/A   Clear
9:35 PM 64.4 °F 50.0 °F 59% 29.87 in 10.0 mi North - - N/A   Clear
9:55 PM 62.6 °F 51.8 °F 68% 29.87 in 10.0 mi North - - N/A   Clear
10:15 PM 64.4 °F 50.0 °F 59% 29.88 in 10.0 mi North - - N/A   Clear
10:35 PM 62.6 °F 48.2 °F 59% 29.88 in 10.0 mi North - - N/A   Clear
10:55 PM 60.8 °F 50.0 °F 68% 29.88 in 10.0 mi ENE 5.8 mph - N/A   Clear
11:15 PM 59.0 °F 51.8 °F 77% 29.88 in 10.0 mi East 5.8 mph - N/A   Clear
11:35 PM 60.8 °F 50.0 °F 68% 29.88 in 10.0 mi Calm Calm - N/A   Clear
11:55 PM 60.8 °F 48.2 °F 63% 29.88 in 10.0 mi Calm Calm - N/A   Clear